QPF
0.00 0.00 0.00 0.00 0.00 0.00 0.00 0.00 0.00 0.00 0.01 0.02 0.04 0.05 0.10 0.15 0.11 0.09 0.09 0.12 0.16 0.16 0.14 0.11 0.11 0.11 0.13 0.14 0.11 0.07 0.05 0.04 0.04 0.05 0.05 0.05 0.04 0.03 0.03 0.02 0.02 0.03 0.02 0.03
0.00 0.00 0.00 0.00 0.00 0.00 0.00 0.00 0.01 0.02 0.02 0.02 0.03 0.04 0.06 0.08 0.08 0.11 0.11 0.08 0.09 0.10 0.13 0.12 0.09 0.09 0.08 0.07 0.08 0.07 0.05 0.04 0.05 0.05 0.06 0.06 0.06 0.05 0.04 0.04 0.04 0.04 0.04 0.04
0.00 0.00 0.00 0.00 0.00 0.00 0.00 0.01 0.02 0.04 0.05 0.04 0.03 0.03 0.05 0.05 0.05 0.06 0.08 0.08 0.09 0.08 0.11 0.17 0.13 0.08 0.06 0.05 0.05 0.06 0.06 0.06 0.07 0.08 0.08 0.07 0.06 0.06 0.05 0.05 0.05 0.04 0.05 0.05
0.00 0.00 0.00 0.01 0.01 0.01 0.01 0.02 0.02 0.02 0.03 0.05 0.05 0.05 0.06 0.06 0.05 0.05 0.07 0.09 0.10 0.10 0.08 0.16 0.18 0.15 0.10 0.09 0.09 0.08 0.07 0.07 0.08 0.09 0.10 0.07 0.05 0.04 0.04 0.04 0.04 0.05 0.05 0.06
0.00 0.00 0.00 0.01 0.01 0.01 0.01 0.03 0.03 0.03 0.04 0.05 0.05 0.04 0.05 0.05 0.06 0.07 0.07 0.09 0.07 0.06 0.06 0.11 0.15 0.16 0.17 0.15 0.15 0.14 0.13 0.12 0.11 0.12 0.14 0.12 0.09 0.06 0.05 0.05 0.06 0.06 0.06 0.05
0.01 0.01 0.01 0.01 0.01 0.01 0.02 0.05 0.05 0.03 0.05 0.05 0.05 0.05 0.03 0.03 0.05 0.08 0.08 0.08 0.07 0.06 0.06 0.08 0.11 0.12 0.16 0.21 0.19 0.21 0.21 0.20 0.18 0.18 0.18 0.16 0.13 0.10 0.06 0.06 0.06 0.06 0.06 0.05
0.02 0.02 0.02 0.01 0.01 0.01 0.03 0.04 0.04 0.04 0.05 0.06 0.06 0.05 0.05 0.04 0.05 0.08 0.10 0.09 0.10 0.09 0.07 0.07 0.09 0.09 0.10 0.14 0.16 0.16 0.17 0.18 0.18 0.19 0.22 0.24 0.24 0.19 0.12 0.09 0.09 0.12 0.07 0.07
0.02 0.02 0.02 0.01 0.01 0.02 0.03 0.03 0.04 0.03 0.03 0.04 0.04 0.04 0.07 0.06 0.06 0.06 0.06 0.06 0.07 0.09 0.08 0.06 0.06 0.06 0.07 0.08 0.09 0.10 0.11 0.13 0.12 0.12 0.15 0.21 0.25 0.26 0.24 0.16 0.09 0.09 0.09 0.09
0.02 0.03 0.02 0.02 0.03 0.06 0.05 0.03 0.05 0.04 0.04 0.04 0.05 0.04 0.07 0.05 0.04 0.05 0.03 0.03 0.04 0.05 0.06 0.05 0.04 0.04 0.04 0.06 0.07 0.07 0.09 0.10 0.11 0.13 0.14 0.16 0.18 0.19 0.17 0.18 0.17 0.10 0.08 0.06
0.02 0.02 0.03 0.02 0.03 0.06 0.06 0.04 0.03 0.03 0.03 0.03 0.03 0.02 0.03 0.02 0.02 0.02 0.02 0.03 0.03 0.04 0.04 0.05 0.05 0.04 0.03 0.04 0.05 0.06 0.07 0.09 0.11 0.09 0.10 0.14 0.16 0.16 0.16 0.16 0.15 0.10 0.08 0.06
0.05 0.02 0.02 0.02 0.03 0.04 0.04 0.07 0.04 0.03 0.02 0.02 0.01 0.01 0.01 0.01 0.01 0.01 0.01 0.02 0.05 0.05 0.05 0.04 0.05 0.05 0.04 0.04 0.04 0.05 0.05 0.05 0.07 0.08 0.08 0.10 0.14 0.15 0.11 0.12 0.16 0.15 0.12 0.08
0.05 0.04 0.04 0.04 0.03 0.03 0.03 0.06 0.06 0.04 0.03 0.02 0.01 0.01 0.01 0.01 0.01 0.01 0.01 0.02 0.03 0.05 0.07 0.05 0.04 0.05 0.05 0.04 0.03 0.03 0.04 0.04 0.04 0.05 0.06 0.05 0.07 0.11 0.11 0.08 0.08 0.08 0.08 0.07
0.05 0.06 0.10 0.07 0.07 0.06 0.04 0.04 0.05 0.04 0.03 0.02 0.01 0.01 0.01 0.02 0.02 0.02 0.02 0.02 0.02 0.02 0.03 0.05 0.05 0.05 0.05 0.04 0.03 0.03 0.03 0.04 0.03 0.04 0.04 0.05 0.05 0.06 0.07 0.07 0.07 0.06 0.05 0.05
0.04 0.07 0.10 0.10 0.09 0.07 0.05 0.04 0.03 0.03 0.02 0.01 0.01 0.01 0.02 0.03 0.04 0.04 0.03 0.03 0.03 0.02 0.03 0.04 0.04 0.05 0.05 0.04 0.04 0.04 0.04 0.04 0.04 0.04 0.03 0.04 0.05 0.06 0.06 0.06 0.05 0.05 0.06 0.06
0.08 0.07 0.04 0.06 0.06 0.06 0.04 0.03 0.03 0.02 0.01 0.01 0.01 0.01 0.02 0.04 0.05 0.06 0.06 0.04 0.03 0.02 0.02 0.01 0.02 0.02 0.03 0.04 0.04 0.04 0.04 0.04 0.04 0.03 0.03 0.03 0.04 0.05 0.06 0.07 0.07 0.05 0.04 0.04
0.04 0.06 0.04 0.04 0.04 0.04 0.03 0.03 0.03 0.02 0.01 0.01 0.01 0.01 0.03 0.05 0.07 0.07 0.05 0.04 0.03 0.02 0.01 0.01 0.01 0.01 0.01 0.02 0.03 0.03 0.04 0.05 0.05 0.05 0.05 0.06 0.06 0.06 0.07 0.07 0.07 0.07 0.06 0.05
0.03 0.04 0.04 0.05 0.06 0.05 0.04 0.03 0.02 0.02 0.02 0.01 0.01 0.01 0.03 0.04 0.07 0.08 0.05 0.04 0.03 0.02 0.01 0.01 0.01 0.01 0.01 0.01 0.02 0.03 0.02 0.03 0.03 0.04 0.05 0.05 0.05 0.06 0.07 0.06 0.06 0.07 0.07 0.07
0.02 0.02 0.03 0.04 0.05 0.04 0.03 0.03 0.02 0.02 0.02 0.02 0.02 0.02 0.03 0.05 0.06 0.04 0.02 0.01 0.01 0.01 0.01 0.01 0.01 0.01 0.01 0.01 0.02 0.02 0.02 0.02 0.02 0.02 0.03 0.03 0.04 0.05 0.06 0.04 0.04 0.04 0.04 0.04
0.03 0.03 0.03 0.03 0.03 0.02 0.02 0.02 0.02 0.02 0.02 0.02 0.02 0.02 0.02 0.03 0.02 0.01 0.00 0.00 0.01 0.01 0.01 0.02 0.01 0.00 0.01 0.01 0.01 0.02 0.03 0.03 0.03 0.03 0.03 0.03 0.03 0.03 0.02 0.01 0.01 0.01 0.02 0.02
0.03 0.03 0.03 0.02 0.02 0.02 0.01 0.01 0.01 0.02 0.02 0.02 0.03 0.02 0.02 0.02 0.02 0.01 0.01 0.01 0.01 0.01 0.01 0.01 0.01 0.00 0.00 0.01 0.01 0.01 0.02 0.02 0.02 0.02 0.02 0.03 0.03 0.03 0.02 0.01 0.01 0.01 0.01 0.01
0.05 0.04 0.03 0.02 0.02 0.01 0.01 0.01 0.01 0.01 0.02 0.02 0.03 0.03 0.02 0.02 0.02 0.01 0.01 0.01 0.01 0.01 0.01 0.01 0.01 0.01 0.00 0.00 0.01 0.00 0.01 0.02 0.02 0.02 0.03 0.03 0.04 0.03 0.03 0.02 0.01 0.01 0.01 0.01
0.05 0.04 0.03 0.02 0.02 0.02 0.02 0.02 0.02 0.02 0.02 0.03 0.03 0.03 0.03 0.02 0.02 0.01 0.01 0.01 0.01 0.01 0.01 0.01 0.01 0.01 0.01 0.01 0.01 0.01 0.01 0.01 0.02 0.03 0.04 0.04 0.04 0.04 0.03 0.03 0.02 0.02 0.02 0.01
0.04 0.04 0.03 0.02 0.01 0.01 0.02 0.02 0.03 0.02 0.03 0.03 0.03 0.03 0.03 0.02 0.02 0.02 0.01 0.01 0.01 0.01 0.01 0.01 0.01 0.01 0.01 0.00 0.01 0.01 0.01 0.01 0.01 0.02 0.04 0.04 0.05 0.05 0.04 0.04 0.03 0.03 0.02 0.02
0.04 0.04 0.04 0.03 0.03 0.03 0.02 0.03 0.04 0.03 0.03 0.04 0.04 0.03 0.02 0.02 0.02 0.02 0.01 0.01 0.01 0.01 0.01 0.01 0.01 0.01 0.01 0.01 0.01 0.01 0.01 0.01 0.01 0.02 0.03 0.03 0.03 0.02 0.03 0.03 0.03 0.02 0.02 0.02
0.05 0.05 0.04 0.04 0.04 0.04 0.04 0.04 0.04 0.05 0.05 0.04 0.03 0.03 0.02 0.03 0.03 0.03 0.03 0.03 0.03 0.03 0.02 0.02 0.02 0.01 0.01 0.01 0.01 0.01 0.01 0.01 0.01 0.01 0.01 0.01 0.01 0.01 0.01 0.02 0.02 0.02 0.02 0.02
0.04 0.04 0.04 0.04 0.04 0.05 0.05 0.05 0.05 0.05 0.05 0.04 0.03 0.02 0.02 0.02 0.02 0.02 0.03 0.03 0.03 0.03 0.02 0.01 0.01 0.01 0.01 0.02 0.02 0.01 0.01 0.01 0.01 0.01 0.00 0.00 0.00 0.01 0.01 0.01 0.02 0.02 0.03 0.05
0.04 0.03 0.03 0.03 0.03 0.04 0.05 0.04 0.03 0.03 0.03 0.03 0.02 0.02 0.03 0.02 0.02 0.02 0.04 0.03 0.02 0.02 0.02 0.02 0.01 0.01 0.01 0.02 0.02 0.02 0.02 0.01 0.01 0.00 0.00 0.00 0.01 0.01 0.01 0.02 0.02 0.03 0.04 0.04
MSLP
1007.50 1006.70 1005.80 1004.86 1003.92 1003.02 1002.21 1001.51 1000.93 1000.48 1000.16 999.98 999.91 999.94 1000.06 1000.24 1000.47 1000.72 1000.97 1001.23 1001.51 1001.81 1002.16 1002.59 1003.12 1003.76 1004.50 1005.32 1006.17 1007.01 1007.79 1008.46 1008.99 1009.39 1009.65 1009.82 1009.94 1010.06 1010.22 1010.44 1010.72 1011.07 1011.45 1011.83
1006.97 1006.09 1005.04 1003.90 1002.73 1001.62 1000.64 999.83 999.23 998.85 998.69 998.72 998.90 999.17 999.49 999.81 1000.09 1000.31 1000.48 1000.59 1000.70 1000.84 1001.07 1001.43 1001.95 1002.63 1003.47 1004.43 1005.44 1006.43 1007.36 1008.16 1008.81 1009.29 1009.61 1009.83 1009.99 1010.13 1010.30 1010.53 1010.83 1011.17 1011.55 1011.93
1006.39 1005.43 1004.27 1002.98 1001.66 1000.40 999.31 998.45 997.86 997.57 997.55 997.76 998.14 998.61 999.09 999.51 999.83 1000.02 1000.10 1000.10 1000.07 1000.09 1000.23 1000.53 1001.04 1001.76 1002.68 1003.74 1004.87 1005.99 1007.03 1007.93 1008.66 1009.20 1009.59 1009.84 1010.03 1010.20 1010.39 1010.63 1010.93 1011.27 1011.64 1012.00
1005.87 1004.83 1003.58 1002.20 1000.79 999.47 998.33 997.46 996.92 996.70 996.80 997.16 997.69 998.30 998.89 999.38 999.73 999.91 999.94 999.87 999.76 999.70 999.78 1000.05 1000.56 1001.30 1002.26 1003.38 1004.56 1005.74 1006.84 1007.78 1008.55 1009.13 1009.54 1009.82 1010.03 1010.21 1010.42 1010.66 1010.96 1011.30 1011.66 1011.99
1005.47 1004.36 1003.05 1001.62 1000.18 998.85 997.73 996.89 996.40 996.26 996.45 996.91 997.54 998.24 998.90 999.45 999.82 1000.01 1000.03 999.94 999.81 999.74 999.80 1000.07 1000.58 1001.33 1002.29 1003.40 1004.58 1005.75 1006.82 1007.75 1008.49 1009.06 1009.46 1009.73 1009.94 1010.14 1010.34 1010.60 1010.90 1011.23 1011.57 1011.89
1005.17 1003.99 1002.65 1001.22 999.81 998.52 997.45 996.68 996.26 996.19 996.44 996.96 997.65 998.39 999.10 999.68 1000.09 1000.31 1000.37 1000.31 1000.22 1000.18 1000.28 1000.56 1001.07 1001.81 1002.73 1003.79 1004.90 1005.99 1006.98 1007.82 1008.49 1008.99 1009.35 1009.60 1009.79 1009.98 1010.19 1010.45 1010.75 1011.08 1011.41 1011.71
1004.91 1003.68 1002.34 1000.95 999.61 998.40 997.42 996.74 996.40 996.39 996.69 997.24 997.94 998.70 999.42 1000.04 1000.49 1000.77 1000.90 1000.92 1000.92 1000.96 1001.11 1001.43 1001.95 1002.65 1003.51 1004.48 1005.46 1006.42 1007.27 1007.98 1008.54 1008.95 1009.24 1009.45 1009.62 1009.79 1010.00 1010.26 1010.56 1010.89 1011.21 1011.51
1004.62 1003.38 1002.07 1000.75 999.51 998.43 997.58 997.00 996.74 996.79 997.12 997.67 998.37 999.12 999.85 1000.48 1000.98 1001.33 1001.55 1001.69 1001.80 1001.94 1002.18 1002.55 1003.07 1003.73 1004.50 1005.34 1006.18 1006.97 1007.66 1008.23 1008.66 1008.96 1009.17 1009.33 1009.47 1009.63 1009.84 1010.09 1010.39 1010.72 1011.04 1011.34
1004.25 1003.03 1001.79 1000.59 999.49 998.56 997.85 997.40 997.22 997.33 997.67 998.22 998.89 999.62 1000.33 1000.98 1001.52 1001.95 1002.27 1002.53 1002.76 1003.02 1003.34 1003.75 1004.27 1004.88 1005.56 1006.27 1006.95 1007.58 1008.10 1008.52 1008.82 1009.03 1009.17 1009.29 1009.40 1009.55 1009.75 1010.00 1010.30 1010.62 1010.94 1011.23
1003.78 1002.63 1001.51 1000.46 999.53 998.77 998.21 997.89 997.81 997.96 998.32 998.85 999.49 1000.18 1000.87 1001.52 1002.10 1002.59 1003.01 1003.38 1003.72 1004.08 1004.47 1004.92 1005.43 1005.99 1006.57 1007.15 1007.69 1008.16 1008.54 1008.83 1009.04 1009.17 1009.26 1009.34 1009.44 1009.58 1009.77 1010.01 1010.30 1010.60 1010.91 1011.19
1003.27 1002.23 1001.26 1000.38 999.64 999.06 998.67 998.48 998.49 998.69 999.06 999.56 1000.17 1000.82 1001.48 1002.12 1002.72 1003.26 1003.75 1004.21 1004.64 1005.07 1005.51 1005.98 1006.47 1006.97 1007.46 1007.93 1008.34 1008.69 1008.96 1009.15 1009.28 1009.36 1009.42 1009.48 1009.57 1009.70 1009.88 1010.11 1010.37 1010.65 1010.93 1011.19
1002.80 1001.91 1001.11 1000.42 999.87 999.47 999.24 999.17 999.27 999.51 999.89 1000.38 1000.94 1001.56 1002.19 1002.81 1003.41 1003.98 1004.51 1005.02 1005.50 1005.97 1006.44 1006.90 1007.35 1007.79 1008.20 1008.57 1008.89 1009.14 1009.32 1009.45 1009.53 1009.58 1009.63 1009.68 1009.77 1009.89 1010.05 1010.25 1010.47 1010.72 1010.96 1011.18
1002.45 1001.73 1001.11 1000.61 1000.25 1000.02 999.93 999.98 1000.15 1000.44 1000.82 1001.29 1001.83 1002.40 1003.00 1003.59 1004.18 1004.76 1005.30 1005.83 1006.33 1006.80 1007.26 1007.69 1008.10 1008.47 1008.81 1009.09 1009.32 1009.50 1009.63 1009.72 1009.77 1009.81 1009.85 1009.90 1009.97 1010.07 1010.20 1010.36 1010.54 1010.73 1010.92 1011.11
1002.29 1001.74 1001.30 1000.98 1000.78 1000.70 1000.74 1000.88 1001.12 1001.44 1001.84 1002.30 1002.80 1003.34 1003.90 1004.47 1005.04 1005.60 1006.13 1006.65 1007.13 1007.59 1008.01 1008.39 1008.74 1009.04 1009.30 1009.51 1009.67 1009.80 1009.88 1009.94 1009.98 1010.01 1010.03 1010.07 1010.12 1010.20 1010.29 1010.40 1010.53 1010.66 1010.80 1010.93
1002.34 1001.96 1001.68 1001.52 1001.46 1001.51 1001.64 1001.86 1002.15 1002.50 1002.90 1003.35 1003.83 1004.34 1004.87 1005.41 1005.95 1006.48 1006.98 1007.47 1007.91 1008.32 1008.69 1009.01 1009.28 1009.51 1009.69 1009.84 1009.94 1010.02 1010.07 1010.11 1010.13 1010.14 1010.16 1010.18 1010.20 1010.24 1010.28 1010.34 1010.41 1010.49 1010.57 1010.66
1002.59 1002.36 1002.22 1002.18 1002.24 1002.38 1002.60 1002.87 1003.20 1003.56 1003.97 1004.40 1004.87 1005.35 1005.85 1006.36 1006.86 1007.35 1007.82 1008.25 1008.65 1008.99 1009.29 1009.54 1009.73 1009.89 1010.00 1010.08 1010.14 1010.18 1010.19 1010.20 1010.21 1010.21 1010.20 1010.20 1010.19 1010.19 1010.19 1010.19 1010.21 1010.23 1010.27 1010.32
1002.99 1002.89 1002.87 1002.94 1003.09 1003.30 1003.57 1003.88 1004.22 1004.60 1005.00 1005.42 1005.86 1006.32 1006.78 1007.25 1007.71 1008.16 1008.57 1008.95 1009.28 1009.56 1009.78 1009.95 1010.08 1010.16 1010.21 1010.24 1010.25 1010.25 1010.24 1010.23 1010.21 1010.19 1010.17 1010.14 1010.10 1010.06 1010.02 1009.99 1009.96 1009.94 1009.94 1009.97
1003.50 1003.51 1003.59 1003.74 1003.96 1004.22 1004.52 1004.85 1005.20 1005.57 1005.95 1006.35 1006.76 1007.18 1007.61 1008.03 1008.44 1008.83 1009.19 1009.50 1009.76 1009.97 1010.12 1010.22 1010.28 1010.30 1010.30 1010.28 1010.25 1010.22 1010.20 1010.17 1010.14 1010.11 1010.07 1010.02 1009.96 1009.90 1009.83 1009.76 1009.71 1009.66 1009.64 1009.64
1004.08 1004.18 1004.35 1004.57 1004.83 1005.13 1005.44 1005.77 1006.10 1006.45 1006.80 1007.16 1007.53 1007.90 1008.28 1008.65 1009.00 1009.32 1009.61 1009.85 1010.04 1010.18 1010.27 1010.30 1010.31 1010.28 1010.24 1010.19 1010.14 1010.10 1010.06 1010.03 1009.99 1009.96 1009.92 1009.86 1009.80 1009.72 1009.64 1009.56 1009.49 1009.43 1009.38 1009.37
1004.70 1004.89 1005.13 1005.40 1005.70 1006.00 1006.31 1006.62 1006.93 1007.24 1007.54 1007.85 1008.16 1008.47 1008.78 1009.08 1009.36 1009.61 1009.82 1009.99 1010.11 1010.19 1010.21 1010.20 1010.16 1010.11 1010.04 1009.98 1009.92 1009.87 1009.84 1009.81 1009.79 1009.76 1009.73 1009.68 1009.62 1009.55 1009.46 1009.38 1009.30 1009.23 1009.17 1009.13
1005.36 1005.62 1005.92 1006.22 1006.54 1006.84 1007.13 1007.40 1007.67 1007.92 1008.16 1008.40 1008.64 1008.88 1009.11 1009.33 1009.53 1009.70 1009.84 1009.94 1010.00 1010.01 1009.99 1009.94 1009.87 1009.80 1009.72 1009.65 1009.60 1009.57 1009.55 1009.54 1009.53 1009.52 1009.51 1009.47 1009.43 1009.37 1009.29 1009.21 1009.12 1009.04 1008.97 1008.90
1006.04 1006.36 1006.69 1007.02 1007.32 1007.60 1007.86 1008.09 1008.29 1008.47 1008.64 1008.81 1008.97 1009.12 1009.27 1009.41 1009.53 1009.63 1009.70 1009.74 1009.74 1009.71 1009.65 1009.58 1009.49 1009.41 1009.33 1009.27 1009.23 1009.22 1009.22 1009.22 1009.24 1009.25 1009.26 1009.24 1009.21 1009.16 1009.09 1009.01 1008.91 1008.82 1008.72 1008.63
1006.71 1007.07 1007.41 1007.73 1008.02 1008.26 1008.46 1008.63 1008.77 1008.88 1008.98 1009.06 1009.15 1009.22 1009.30 1009.37 1009.42 1009.46 1009.47 1009.46 1009.42 1009.35 1009.27 1009.18 1009.09 1009.01 1008.94 1008.89 1008.86 1008.86 1008.88 1008.90 1008.94 1008.97 1008.98 1008.98 1008.96 1008.91 1008.84 1008.75 1008.65 1008.53 1008.40 1008.28
1007.34 1007.70 1008.03 1008.33 1008.57 1008.76 1008.91 1009.01 1009.08 1009.12 1009.15 1009.17 1009.19 1009.21 1009.23 1009.24 1009.25 1009.24 1009.22 1009.17 1009.11 1009.03 1008.94 1008.84 1008.75 1008.67 1008.61 1008.57 1008.55 1008.55 1008.58 1008.61 1008.65 1008.68 1008.70 1008.70 1008.67 1008.62 1008.54 1008.43 1008.31 1008.16 1008.01 1007.85
1007.86 1008.20 1008.50 1008.75 1008.94 1009.07 1009.16 1009.20 1009.21 1009.20 1009.18 1009.16 1009.14 1009.12 1009.11 1009.10 1009.08 1009.05 1009.01 1008.96 1008.89 1008.80 1008.71 1008.62 1008.53 1008.45 1008.39 1008.35 1008.33 1008.33 1008.35 1008.38 1008.40 1008.42 1008.43 1008.41 1008.37 1008.30 1008.20 1008.07 1007.92 1007.75 1007.57 1007.37
1008.24 1008.54 1008.79 1008.98 1009.11 1009.19 1009.22 1009.21 1009.18 1009.14 1009.10 1009.06 1009.03 1009.01 1008.99 1008.98 1008.97 1008.95 1008.92 1008.87 1008.81 1008.73 1008.65 1008.56 1008.47 1008.39 1008.33 1008.28 1008.25 1008.23 1008.23 1008.23 1008.23 1008.23 1008.20 1008.16 1008.10 1008.00 1007.87 1007.72 1007.55 1007.35 1007.14 1006.92
1008.46 1008.71 1008.90 1009.03 1009.11 1009.14 1009.14 1009.10 1009.06 1009.02 1008.98 1008.95 1008.94 1008.94 1008.95 1008.96 1008.98 1008.98 1008.97 1008.94 1008.90 1008.84 1008.76 1008.68 1008.59 1008.50 1008.42 1008.36 1008.30 1008.26 1008.22 1008.19 1008.16 1008.12 1008.06 1007.99 1007.89 1007.77 1007.62 1007.45 1007.25 1007.03 1006.80 1006.57
Thickness
5750 5762 5768 5767 5770 5773 5763 5758 5750 5754 5757 5767 5775 5778 5780 5781 5782 5781 5781 5781 5780 5780 5780 5780 5779 5777 5777 5776 5773 5772 5768 5765 5764 5762 5760 5758 5755 5752 5749 5747 5744 5742 5739 5736
5743 5757 5761 5759 5765 5769 5768 5765 5760 5759 5756 5773 5775 5775 5773 5774 5775 5772 5773 5772 5771 5771 5771 5771 5772 5771 5770 5769 5768 5766 5763 5760 5759 5757 5755 5752 5749 5746 5744 5741 5739 5737 5734 5731
5719 5741 5743 5733 5752 5759 5760 5764 5762 5751 5756 5765 5763 5765 5766 5767 5767 5765 5766 5766 5765 5764 5764 5765 5766 5765 5763 5763 5762 5759 5755 5754 5751 5750 5747 5745 5743 5739 5736 5734 5733 5730 5728 5726
5706 5718 5703 5732 5759 5763 5758 5758 5763 5763 5762 5763 5762 5763 5762 5762 5759 5759 5759 5758 5758 5758 5757 5757 5758 5757 5756 5755 5755 5752 5748 5747 5744 5742 5739 5737 5734 5731 5730 5728 5726 5724 5722 5720
5692 5693 5705 5730 5747 5750 5744 5740 5756 5755 5755 5756 5757 5752 5747 5753 5755 5755 5754 5752 5752 5753 5751 5749 5749 5748 5747 5745 5744 5741 5739 5738 5738 5736 5732 5729 5725 5723 5722 5720 5718 5716 5715 5713
5688 5687 5688 5716 5743 5754 5744 5723 5746 5750 5748 5746 5745 5729 5731 5745 5748 5748 5748 5746 5745 5744 5743 5741 5740 5739 5736 5734 5733 5731 5732 5731 5731 5728 5725 5722 5721 5717 5716 5714 5711 5709 5707 5706
5681 5681 5694 5722 5739 5743 5715 5715 5738 5743 5743 5740 5734 5733 5736 5740 5739 5738 5737 5736 5735 5734 5731 5731 5731 5730 5726 5725 5723 5723 5723 5722 5721 5721 5718 5716 5714 5711 5709 5707 5704 5703 5701 5699
5673 5672 5684 5720 5726 5719 5719 5731 5734 5736 5736 5733 5731 5731 5731 5730 5728 5728 5727 5726 5725 5722 5720 5721 5721 5720 5716 5714 5716 5714 5713 5712 5712 5711 5710 5709 5705 5702 5700 5698 5694 5693 5691 5689
5675 5678 5698 5712 5715 5719 5723 5723 5725 5726 5728 5727 5723 5721 5721 5719 5717 5717 5717 5716 5715 5713 5711 5710 5711 5710 5707 5706 5706 5704 5703 5702 5701 5700 5699 5698 5695 5692 5690 5688 5685 5682 5681 5679
5673 5683 5694 5702 5708 5713 5716 5716 5719 5721 5720 5718 5713 5712 5710 5708 5707 5706 5706 5705 5704 5702 5699 5698 5699 5699 5698 5698 5697 5695 5693 5692 5690 5688 5688 5687 5685 5684 5680 5677 5675 5672 5670 5669
5664 5676 5684 5692 5699 5704 5706 5709 5711 5711 5711 5709 5706 5703 5701 5697 5696 5696 5696 5695 5693 5691 5690 5689 5689 5688 5688 5688 5687 5684 5682 5681 5680 5679 5677 5675 5674 5671 5670 5670 5667 5665 5662 5661
5661 5672 5674 5679 5691 5697 5697 5698 5700 5699 5697 5697 5696 5693 5691 5688 5688 5688 5686 5685 5683 5681 5680 5679 5678 5677 5678 5678 5677 5674 5672 5671 5670 5670 5669 5667 5664 5661 5661 5660 5659 5658 5657 5655
5672 5677 5677 5681 5685 5688 5689 5690 5691 5690 5687 5685 5684 5683 5681 5678 5677 5677 5676 5675 5674 5672 5671 5670 5669 5668 5667 5668 5667 5666 5663 5662 5661 5661 5660 5658 5655 5652 5651 5651 5650 5649 5649 5647
5674 5674 5670 5673 5675 5679 5680 5681 5681 5679 5677 5676 5674 5673 5671 5669 5667 5666 5665 5665 5664 5663 5661 5660 5659 5658 5658 5659 5658 5658 5656 5655 5653 5652 5650 5649 5646 5644 5643 5641 5641 5640 5640 5639
5666 5669 5667 5668 5668 5669 5670 5671 5668 5665 5664 5663 5663 5662 5660 5658 5656 5655 5655 5655 5654 5652 5651 5650 5649 5649 5649 5649 5649 5649 5648 5646 5645 5644 5642 5640 5638 5636 5634 5632 5631 5631 5630 5630
5658 5660 5660 5659 5658 5659 5660 5660 5658 5656 5656 5654 5653 5652 5651 5650 5648 5647 5646 5646 5643 5641 5640 5640 5640 5641 5641 5641 5640 5640 5640 5640 5638 5636 5634 5632 5630 5628 5625 5624 5622 5621 5620 5620
5649 5648 5649 5649 5650 5652 5653 5652 5652 5651 5649 5647 5645 5644 5642 5640 5638 5637 5637 5637 5635 5634 5633 5632 5632 5633 5633 5633 5632 5630 5630 5629 5629 5627 5624 5623 5622 5620 5618 5616 5614 5613 5612 5613
5649 5648 5648 5647 5646 5646 5646 5646 5645 5644 5643 5642 5639 5637 5634 5632 5630 5629 5629 5629 5627 5626 5625 5625 5625 5625 5625 5625 5623 5622 5621 5620 5619 5617 5616 5615 5613 5612 5610 5609 5607 5606 5606 5606
5644 5643 5643 5642 5642 5641 5639 5638 5638 5637 5636 5635 5632 5629 5627 5625 5624 5623 5622 5620 5618 5616 5617 5618 5619 5618 5617 5617 5616 5615 5613 5612 5611 5609 5607 5606 5605 5603 5602 5601 5600 5599 5598 5597
5637 5637 5636 5635 5635 5634 5632 5631 5631 5629 5628 5626 5624 5621 5619 5618 5617 5616 5614 5612 5611 5611 5612 5612 5612 5610 5610 5609 5609 5607 5606 5605 5603 5601 5599 5597 5596 5595 5593 5593 5593 5592 5590 5589
5629 5629 5629 5628 5626 5626 5626 5625 5624 5622 5621 5619 5616 5613 5612 5611 5610 5609 5606 5604 5605 5606 5606 5606 5605 5604 5604 5603 5602 5599 5598 5596 5594 5593 5592 5590 5589 5587 5585 5585 5584 5583 5582 5581
5622 5622 5622 5621 5619 5618 5618 5617 5616 5615 5613 5611 5610 5608 5606 5604 5603 5602 5600 5599 5600 5601 5600 5599 5599 5600 5599 5597 5595 5592 5591 5589 5587 5585 5584 5583 5581 5579 5578 5577 5576 5575 5574 5572
5617 5616 5616 5615 5614 5612 5612 5611 5610 5608 5607 5605 5604 5602 5600 5599 5597 5595 5593 5594 5595 5595 5595 5594 5594 5594 5593 5590 5588 5586 5585 5583 5580 5579 5578 5576 5575 5573 5571 5570 5568 5567 5565 5563
5612 5612 5611 5610 5609 5606 5604 5604 5604 5603 5602 5600 5599 5597 5596 5593 5591 5591 5590 5591 5590 5590 5588 5587 5587 5587 5586 5584 5581 5579 5578 5576 5574 5573 5571 5570 5568 5567 5565 5563 5561 5559 5557 5556
5607 5607 5605 5603 5601 5600 5599 5598 5597 5597 5596 5594 5593 5593 5592 5590 5587 5585 5585 5584 5584 5583 5582 5582 5582 5581 5579 5577 5575 5574 5572 5570 5569 5567 5565 5563 5561 5560 5558 5556 5554 5551 5549 5547
5601 5600 5599 5598 5596 5595 5594 5593 5591 5590 5589 5588 5586 5586 5586 5585 5583 5581 5579 5578 5578 5577 5576 5576 5575 5574 5572 5571 5569 5568 5566 5564 5563 5561 5559 5557 5554 5552 5550 5548 5546 5543 5541 5538
5595 5595 5593 5592 5592 5592 5591 5590 5588 5586 5585 5583 5582 5581 5580 5579 5578 5576 5575 5574 5573 5572 5571 5570 5569 5568 5567 5565 5564 5562 5560 5558 5556 5554 5552 5549 5547 5544 5542 5540 5537 5535 5533 5531